EN

Hourly Weather Skórcz

Today, 27 October, Tuesday

Time Temperature Precipitation Wind Pressure Humidity
00:00 +11°C° 0 mm 3 mps 744 mmHg 89%
01:00 +11°C° 0 mm 3 mps 745 mmHg 91%
02:00 +10°C° 0 mm 2 mps 745 mmHg 91%
03:00 +10°C° 0 mm 2 mps 745 mmHg 92%
04:00 +10°C° 0 mm 2 mps 746 mmHg 92%
05:00 +10°C° 0 mm 2 mps 746 mmHg 92%
06:00 +10°C° 0 mm 2 mps 746 mmHg 92%
07:00 +10°C° 0 mm 2 mps 747 mmHg 90%
08:00 +10°C° 0.3 mm 2 mps 747 mmHg 91%
09:00 +10°C° 0.3 mm 2 mps 747 mmHg 92%
10:00 +10°C° 0.3 mm 2 mps 748 mmHg 93%
11:00 +10°C° 0.3 mm 3 mps 748 mmHg 90%
12:00 +11°C° 0.3 mm 3 mps 748 mmHg 88%
13:00 +11°C° 0.3 mm 3 mps 748 mmHg 85%
14:00 +11°C° 0 mm 3 mps 748 mmHg 82%
15:00 +11°C° 0 mm 3 mps 748 mmHg 78%
16:00 +11°C° 0 mm 3 mps 748 mmHg 75%
17:00 +10°C° 0 mm 3 mps 749 mmHg 76%
18:00 +10°C° 0 mm 3 mps 749 mmHg 77%
19:00 +10°C° 0 mm 3 mps 749 mmHg 78%
20:00 +10°C° 0 mm 3 mps 749 mmHg 79%
21:00 +9°C° 0 mm 3 mps 749 mmHg 79%
22:00 +9°C° 0 mm 3 mps 750 mmHg 80%
23:00 +9°C° 0 mm 3 mps 750 mmHg 82%

Tomorrow, 28 October, Wednesday

Time Temperature Precipitation Wind Pressure Humidity
00:00 +8°C° 0 mm 3 mps 750 mmHg 83%
01:00 +8°C° 0 mm 3 mps 750 mmHg 85%
02:00 +8°C° 0 mm 3 mps 750 mmHg 85%
03:00 +7°C° 0 mm 3 mps 750 mmHg 86%
04:00 +7°C° 0 mm 3 mps 750 mmHg 86%
05:00 +7°C° 0 mm 3 mps 750 mmHg 86%
06:00 +6°C° 0 mm 4 mps 750 mmHg 86%
07:00 +6°C° 0 mm 4 mps 750 mmHg 86%
08:00 +7°C° 0 mm 5 mps 750 mmHg 79%
09:00 +8°C° 0 mm 5 mps 750 mmHg 72%
10:00 +10°C° 0 mm 6 mps 750 mmHg 66%
11:00 +10°C° 0 mm 6 mps 750 mmHg 63%
12:00 +11°C° 0 mm 6 mps 750 mmHg 60%
13:00 +11°C° 0 mm 6 mps 750 mmHg 57%
14:00 +12°C° 0 mm 5 mps 749 mmHg 60%
15:00 +12°C° 0 mm 5 mps 749 mmHg 63%
16:00 +11°C° 0 mm 4 mps 749 mmHg 65%
17:00 +11°C° 0 mm 4 mps 750 mmHg 69%
18:00 +10°C° 0 mm 4 mps 750 mmHg 72%
19:00 +10°C° 0 mm 4 mps 750 mmHg 75%
20:00 +10°C° 0 mm 4 mps 750 mmHg 76%
21:00 +10°C° 0 mm 4 mps 750 mmHg 78%
22:00 +8°C° 0 mm 4 mps 750 mmHg 79%
23:00 +8°C° 0 mm 4 mps 750 mmHg 82%

Day after tomorrow, 29 October, Thursday

Time Temperature Precipitation Wind Pressure Humidity
00:00 +9°C° 0 mm 3 mps 750 mmHg 86%
01:00 +8°C° 0 mm 3 mps 750 mmHg 89%
02:00 +8°C° 0 mm 3 mps 750 mmHg 89%
03:00 +7°C° 0 mm 4 mps 750 mmHg 88%
04:00 +7°C° 0 mm 4 mps 750 mmHg 87%
05:00 +7°C° 0 mm 4 mps 750 mmHg 89%
06:00 +6°C° 0 mm 4 mps 750 mmHg 90%
07:00 +7°C° 0 mm 3 mps 750 mmHg 91%
08:00 +7°C° 0 mm 4 mps 750 mmHg 87%
09:00 +8°C° 0 mm 4 mps 750 mmHg 82%
10:00 +9°C° 0 mm 5 mps 750 mmHg 77%
11:00 +10°C° 0.1 mm 5 mps 750 mmHg 76%
12:00 +10°C° 0.1 mm 5 mps 750 mmHg 75%
13:00 +10°C° 0.1 mm 5 mps 750 mmHg 73%
14:00 +11°C° 0.3 mm 4 mps 750 mmHg 76%
15:00 +10°C° 0.3 mm 4 mps 750 mmHg 78%
16:00 +10°C° 0.3 mm 3 mps 750 mmHg 80%
17:00 +9°C° 0.1 mm 3 mps 750 mmHg 81%
18:00 +9°C° 0.1 mm 3 mps 751 mmHg 81%
19:00 +8°C° 0.1 mm 3 mps 751 mmHg 82%
20:00 +8°C° 0 mm 3 mps 751 mmHg 82%
21:00 +6°C° 0 mm 4 mps 752 mmHg 83%
22:00 +6°C° 0 mm 4 mps 752 mmHg 84%
23:00 +6°C° 0 mm 4 mps 752 mmHg 86%

30 October, Friday

Time Temperature Precipitation Wind Pressure Humidity
00:00 +5°C° 0 mm 4 mps 752 mmHg 88%
01:00 +5°C° 0 mm 4 mps 753 mmHg 90%
02:00 +5°C° 0 mm 4 mps 753 mmHg 91%
03:00 +5°C° 0 mm 4 mps 753 mmHg 92%
04:00 +5°C° 0 mm 4 mps 754 mmHg 93%
05:00 +5°C° 0 mm 4 mps 754 mmHg 93%
06:00 +5°C° 0 mm 4 mps 754 mmHg 92%
07:00 +5°C° 0 mm 3 mps 754 mmHg 91%
08:00 +7°C° 0 mm 3 mps 754 mmHg 88%
09:00 +7°C° 0 mm 3 mps 754 mmHg 84%
10:00 +8°C° 0 mm 3 mps 754 mmHg 80%
11:00 +8°C° 0 mm 3 mps 754 mmHg 78%
12:00 +9°C° 0 mm 3 mps 754 mmHg 75%
13:00 +9°C° 0 mm 3 mps 754 mmHg 73%
14:00 +9°C° 0.2 mm 3 mps 754 mmHg 77%
15:00 +8°C° 0.2 mm 2 mps 753 mmHg 82%
16:00 +8°C° 0.2 mm 2 mps 753 mmHg 86%
17:00 +8°C° 0.1 mm 2 mps 754 mmHg 87%
18:00 +7°C° 0.1 mm 2 mps 754 mmHg 87%
19:00 +7°C° 0.1 mm 2 mps 754 mmHg 88%
20:00 +7°C° 0 mm 2 mps 754 mmHg 89%
21:00 +7°C° 0 mm 2 mps 755 mmHg 90%
22:00 +6°C° 0 mm 2 mps 755 mmHg 92%
23:00 +6°C° 0 mm 2 mps 755 mmHg 93%

31 October, Saturday

Time Temperature Precipitation Wind Pressure Humidity
00:00 +6°C° 0 mm 2 mps 756 mmHg 94%
01:00 +5°C° 0 mm 2 mps 756 mmHg 95%
02:00 +5°C° 0 mm 2 mps 756 mmHg 95%
03:00 +5°C° 0 mm 2 mps 757 mmHg 95%
04:00 +6°C° 0 mm 1 mps 757 mmHg 95%
05:00 +5°C° 0 mm 2 mps 757 mmHg 95%
06:00 +5°C° 0 mm 2 mps 758 mmHg 95%
07:00 +5°C° 0 mm 2 mps 758 mmHg 95%
08:00 +6°C° 0 mm 2 mps 758 mmHg 89%
09:00 +7°C° 0 mm 3 mps 759 mmHg 84%
10:00 +8°C° 0 mm 3 mps 759 mmHg 79%
11:00 +9°C° 0 mm 3 mps 759 mmHg 75%
12:00 +10°C° 0 mm 3 mps 759 mmHg 72%
13:00 +10°C° 0 mm 3 mps 759 mmHg 68%
14:00 +10°C° 0 mm 3 mps 760 mmHg 71%
15:00 +9°C° 0 mm 3 mps 760 mmHg 75%
16:00 +8°C° 0 mm 2 mps 760 mmHg 78%
17:00 +8°C° 0 mm 3 mps 760 mmHg 80%
18:00 +7°C° 0 mm 3 mps 760 mmHg 82%
19:00 +7°C° 0 mm 3 mps 760 mmHg 84%
20:00 +7°C° 0 mm 3 mps 760 mmHg 83%
21:00 +5°C° 0 mm 3 mps 760 mmHg 82%
22:00 +5°C° 0 mm 3 mps 760 mmHg 82%
23:00 +5°C° 0 mm 3 mps 761 mmHg 81%

1 November, Sunday

Time Temperature Precipitation Wind Pressure Humidity
00:00 +5°C° 0 mm 4 mps 761 mmHg 81%
01:00 +5°C° 0 mm 4 mps 761 mmHg 81%
02:00 +4°C° 0 mm 4 mps 761 mmHg 82%
03:00 +4°C° 0 mm 4 mps 760 mmHg 82%
04:00 +4°C° 0 mm 3 mps 760 mmHg 83%
05:00 +4°C° 0 mm 4 mps 760 mmHg 83%
06:00 +4°C° 0 mm 4 mps 760 mmHg 83%
07:00 +4°C° 0 mm 4 mps 760 mmHg 83%
08:00 +5°C° 0 mm 4 mps 760 mmHg 77%
09:00 +6°C° 0 mm 4 mps 760 mmHg 72%
10:00 +7°C° 0 mm 5 mps 760 mmHg 67%
11:00 +8°C° 0 mm 5 mps 760 mmHg 63%
12:00 +9°C° 0 mm 5 mps 759 mmHg 59%
13:00 +10°C° 0 mm 5 mps 759 mmHg 56%
14:00 +10°C° 0 mm 4 mps 759 mmHg 59%
15:00 +10°C° 0 mm 4 mps 759 mmHg 62%
16:00 +8°C° 0 mm 4 mps 759 mmHg 65%
17:00 +8°C° 0 mm 4 mps 759 mmHg 67%
18:00 +7°C° 0 mm 4 mps 759 mmHg 69%
19:00 +7°C° 0 mm 4 mps 759 mmHg 72%
20:00 +6°C° 0 mm 4 mps 759 mmHg 75%
21:00 +6°C° 0 mm 4 mps 759 mmHg 78%
22:00 +6°C° 0 mm 4 mps 759 mmHg 81%
23:00 +6°C° 0 mm 4 mps 759 mmHg 83%
Show more